AO-07 1 07530U 74089B 26159.85767655 -.00000037 00000-0 60281-4 0 9997 2 07530 101.9901 173.0172 0012490 145.6484 337.4400 12.53697926359476 UO-11 1 14781U 84021B 26159.62992578 .00001284 00000-0 13628-3 0 9995 2 14781 97.8053 125.3005 0006842 201.4701 158.6231 14.90763045255856 LO-19 1 20442U 90005G 26159.04225351 .00000130 00000-0 63300-4 0 9991 2 20442 98.8852 180.5956 0010667 229.5628 130.4627 14.34120497901088 AO-27 1 22825U 93061C 26159.74885169 .00000098 00000-0 54073-4 0 9999 2 22825 98.6881 227.1651 0009403 121.6345 238.5756 14.30940118705798 FO-29 1 24278U 96046B 26159.80859493 -.00000009 00000-0 23431-4 0 9994 2 24278 98.5248 9.8285 0350764 118.1164 245.5894 13.53273721472037 GO-32 1 25397U 98043D 26159.70546889 .00000072 00000-0 51506-4 0 9990 2 25397 99.0065 152.2503 0000575 185.5872 174.5300 14.24426807450128 ISS 1 25544U 98067A 26159.80410962 .00007129 00000-0 13425-3 0 9990 2 25544 51.6336 341.5878 0006923 148.5365 211.6039 15.49672912570453 NO-44 1 26931U 01043C 26159.70801494 .00000132 00000-0 80309-4 0 9995 2 26931 67.0512 266.2023 0006110 264.2688 95.7717 14.31953256289238 SO-50 1 27607U 02058C 26159.59134089 .00001122 00000-0 14940-3 0 9996 2 27607 64.5503 155.5805 0075448 264.0559 95.1944 14.83028843263188 CO-55 1 27844U 03031E 26159.74789500 .00000310 00000-0 15325-3 0 9998 2 27844 98.6735 168.4129 0008975 203.1783 156.8992 14.24330726190472 RS-22 1 27939U 03042A 26159.86808723 .00000968 00000-0 15736-3 0 9992 2 27939 98.3475 343.9923 0010180 299.6521 167.4636 14.73453343214327 CO-65 1 32785U 08021C 26159.76336008 .00006172 00000-0 39011-3 0 9995 2 32785 97.8271 141.0073 0010357 63.4149 296.8139 15.09373528983922 CO-66 1 32791U 08021J 26158.92960025 .00019726 00000-0 63151-3 0 9992 2 32791 97.7519 156.3875 0002465 31.6806 328.4582 15.32435639985878 RS-30 1 32953U 08025A 26159.88970182 .00000025 00000-0 10641-3 0 9995 2 32953 82.5048 0.6025 0019223 332.6006 27.4059 12.43178844818669 SRMSAT 1 37841U 11058D 26159.20087963 .00000378 00000-0 61376-4 0 9991 2 37841 19.9708 113.8594 0011953 105.3030 101.4235 14.11573773756543 ZACUBE-1 1 39417U 13066B 26159.80860692 .00004176 00000-0 32547-3 0 9994 2 39417 97.8093 122.1001 0040039 277.1719 82.4953 15.01138401679477 Delfi-N3xt 1 39428U 13066N 26159.74479848 .00005466 00000-0 47948-3 0 9992 2 39428 97.8344 80.0647 0072908 234.1795 125.2636 14.95006098673367 GOMX-1 1 39430U 13066Q 26159.81037453 .00002304 00000-0 34917-3 0 9995 2 39430 97.6493 0.8016 0130130 104.1329 257.4378 14.69430163668689 LO-74 1 39440U 13066AA 26159.82371896 .00004079 00000-0 37815-3 0 9990 2 39440 97.8903 108.7669 0059218 56.2091 304.4748 14.93696969675744 AO-73 1 39444U 13066AE 26159.43863648 .00005403 00000-0 33773-3 0 9993 2 39444 97.8273 130.7025 0034750 231.4089 128.4026 15.09385885678349 DTUSAT-2 1 40030U 14033W 26159.71753323 .00007174 00000-0 38890-3 0 9992 2 40030 98.0867 156.9078 0006097 260.7431 99.3110 15.14911991651408 LILACSAT-2 1 40908U 15049K 26159.88677059 .00018585 00000-0 31941-3 0 9991 2 40908 97.4660 196.4141 0005288 285.3718 74.6949 15.51171943594462 Horyu-4 1 41340U 16012D 26158.66010672 .00317249 00000-0 10211-2 0 9995 2 41340 30.9848 148.6331 0002832 206.9121 153.1392 15.89027763569291 Lapan A3 1 41603U 16040E 26159.83652220 .00003565 00000-0 11379-3 0 9999 2 41603 97.1488 156.2570 0011755 52.7905 307.4409 15.33052724553536 CAS-2T 1 41847U 16066G 26159.79065959 .00001710 00000-0 24711-3 0 9993 2 41847 98.3822 235.6228 0342480 154.8869 206.9427 14.44666773503587 TechnoSat 1 42829U 17042E 26159.40607311 .00002780 00000-0 19990-3 0 9992 2 42829 97.4267 317.3998 0018858 121.9012 238.4052 15.04901037485380 AO-91 1 43017U 17073E 26159.34389375 .00007664 00000-0 33533-3 0 9991 2 43017 97.4721 26.7398 0150896 359.9259 0.1924 15.12571253464050 S-Net D 1 43186U 18014G 26159.55494740 .00005592 00000-0 28942-3 0 9996 2 43186 97.5367 64.3993 0009636 56.2812 303.9338 15.16591590457459 S-Net B 1 43187U 18014H 26158.97240562 .00005447 00000-0 28230-3 0 9992 2 43187 97.5372 63.8067 0010253 53.5740 306.6437 15.16556524457367 S-Net A 1 43188U 18014J 26158.69614311 .00006167 00000-0 31878-3 0 9991 2 43188 97.5380 63.7393 0010161 54.8789 305.3395 15.16591754457322 S-Net C 1 43189U 18014K 26159.70202485 .00005326 00000-0 27602-3 0 9996 2 43189 97.5400 64.8125 0011300 44.7747 315.4396 15.16555468456020 Ten-Koh 1 43677U 18084G 26159.80143198 .00002695 00000-0 20550-3 0 9992 2 43677 98.0786 351.8114 0010601 140.4820 219.7179 15.02909686414907 PO-101 1 43678U 18084H 26159.83379508 .00002814 00000-0 22880-3 0 9993 2 43678 98.1170 355.6802 0012014 197.6736 162.4070 15.00413798414964 QO-100 1 43700U 18090A 26159.74067315 .00000161 00000-0 00000 0 0 9995 2 43700 0.0176 286.6340 0001921 190.0015 72.9424 1.00273374 27596 MinXSS-2 1 43758U 18099A 26159.74557091 .00034727 00000-0 70301-3 0 9992 2 43758 97.4536 235.7865 0006120 291.6091 68.4506 15.46336559412829 AO-95 1 43770U 18099N 26159.42559166 .00009800 00000-0 37741-3 0 9991 2 43770 97.4389 219.7049 0008894 29.5478 330.6261 15.26525509411882 SNUSat 2 1 43782U 18099AA 26159.78520856 .00008110 00000-0 36076-3 0 9990 2 43782 97.4065 213.2985 0009158 332.8709 27.2048 15.21713723411755 SnugLite 1 43784U 18099AC 26158.90442897 .00012529 00000-0 47553-3 0 9994 2 43784 97.3872 213.2770 0001843 353.9215 6.2001 15.26976294411905 ITASat 1 1 43786U 18099AE 26159.12858900 .00007372 00000-0 35522-3 0 9990 2 43786 97.4031 210.8218 0013095 31.6283 328.5736 15.18945561411530 EAGLET 1 1 43790U 18099AJ 26159.38850545 .00003607 00000-0 20837-3 0 9990 2 43790 97.4234 209.2903 0011585 24.8227 335.3559 15.12873842411004 ESEO 1 43792U 18099AL 26159.06694583 .00001792 00000-0 13298-3 0 9991 2 43792 97.3966 196.8457 0012274 11.2332 348.9166 15.04213271410430 JO-97 1 43803U 18099AX 26159.41726799 .00014204 00000-0 44241-3 0 9992 2 43803 97.4131 222.2231 0004225 306.8306 53.2548 15.33373436412280 Suomi 100 1 43804U 18099AY 26159.43281536 .00009960 00000-0 36447-3 0 9992 2 43804 97.4187 219.8598 0008570 316.0475 44.0082 15.28217611412082 ISAT 1 43879U 18111D 26159.78373553 .00093925 00000-0 99554-3 0 9990 2 43879 97.5884 94.3673 0002010 49.8617 310.2817 15.63806706409854 UWE-4 1 43880U 18111E 26159.73543037 .00034399 00000-0 71406-3 0 9999 2 43880 97.5854 87.7396 0007085 15.0599 345.0859 15.45597672409471 Sparrow 1 43881U 18111F 26159.79882542 .00145912 00000-0 10994-2 0 9991 2 43881 97.6116 99.8565 0004819 100.2309 259.9497 15.72054596410054 Prox-1 1 44339U 19036A 26158.75163262 .00013430 00000-0 13165-2 0 9995 2 44339 23.9933 177.2711 0005354 281.8651 78.1248 14.90390005372067 Taurus 1 1 44530U 19059C 26159.81417840 .00005099 00000-0 82032-3 0 9997 2 44530 98.6418 324.1240 0007815 345.7341 14.3643 14.72009894357413 TO-108 1 44881U 19093C 26159.83257441 .00001294 00000-0 15202-3 0 9993 2 44881 97.7527 232.2681 0014936 111.5887 248.6922 14.86507943350178 RS-44 1 44909U 19096E 26159.79612789 .00000028 00000-0 64219-4 0 9999 2 44909 82.5218 345.2821 0217788 163.7359 197.0880 12.79748663301275 SALSAT 1 46495U 20068K 26159.64193340 .00008099 00000-0 28424-3 0 9996 2 46495 97.8856 162.1872 0008838 342.8345 17.2593 15.29677178314059 CSS (TIANHE-1) 1 48274U 21035A 26159.78589514 .00023223 00000-0 27715-3 0 9993 2 48274 41.4695 13.1170 0008543 10.7662 349.3358 15.60455863291854 CUTE 1 49263U 21088D 26159.76449425 .00146319 99447-5 48031-3 0 9998 2 49263 97.4196 258.2588 0007960 248.6128 111.4296 15.90516368261213 TeikyoSat 4 1 49396U 21102B 26159.50304943 .00002438 00000-0 15587-3 0 9994 2 49396 97.3672 189.3240 0011118 329.9080 30.1510 15.09477838251412 Z-Sat 1 49399U 21102E 26159.89356547 .00004280 00000-0 21196-3 0 9996 2 49399 97.3334 195.4684 0014806 277.1094 82.8457 15.18203859252185 KOSEN 1 1 49402U 21102H 26159.03159585 .00007809 00000-0 29937-3 0 9991 2 49402 97.3192 201.3673 0012348 235.0844 124.9235 15.26710328252626 HO-113 1 50466U 21131B 26159.86312545 .00000394 00000-0 13520-3 0 9996 2 50466 98.4972 252.2979 0005231 115.9447 244.2282 14.41349823233911 SNUGLITE 2 1 52899U 22065F 26159.35303490 .00001025 00000-0 20337-3 0 9994 2 52899 98.2193 304.2000 0008493 57.9459 302.2568 14.64331761209709 UmKA 1 (RS40S) 1 57172U 23091G 26159.80334791 .00005559 00000-0 25533-3 0 9990 2 57172 97.5054 218.5333 0013846 143.9336 216.2836 15.20720894162735 CubeBel-2 (EU11S) 1 57175U 23091K 26159.80725616 .00011793 00000-0 42118-3 0 9998 2 57175 97.5054 222.9505 0011068 140.2482 219.9570 15.28948569163021 RS-38S 1 57189U 23091Z 26159.80833209 .00016140 00000-0 46541-3 0 9996 2 57189 97.5093 229.1273 0008684 102.6705 257.5509 15.35758121163403 SONATE-2 1 59112U 24043Q 26159.40564279 .00034305 00000-0 45675-3 0 9996 2 59112 97.5527 309.2685 0006671 225.6872 134.3836 15.58061351126529 GRBBeta 1 60237U 24128C 26159.72475897 .00004223 00000-0 29272-3 0 9993 2 60237 61.9897 245.9555 0041799 132.8784 227.5832 15.06584103104993 Curium One 1 60242U 24128H 26159.77378877 .00007941 00000-0 45821-3 0 9992 2 60242 61.9782 235.5712 0041127 128.7212 231.7572 15.12405383105186 ROBUSTA-3A 1 60243U 24128J 26159.80006560 .00007653 00000-0 45182-3 0 9994 2 60243 61.9858 237.9014 0042331 126.3779 234.1234 15.11578086105151 CatSat 1 60246U 24125J 26159.85527419 .00057679 00000-0 76822-3 0 9998 2 60246 97.2096 12.2535 0021910 208.8241 151.1806 15.57674105106098 HYPERVIEW-1G (RS66S) 1 61772U 24199AP 26159.54748109 -.00003022 00000-0 -20844-4 0 9990 2 61772 97.2891 38.8443 0001993 299.0246 61.0818 15.73537611133319 AO-123 1 61781U 24199AY 26159.82418446 .00007474 00000-0 21800-3 0 9994 2 61781 97.3015 28.5706 0013171 346.4374 13.6514 15.35555817132643 JINJUSat 1B 1 63210U 25052A 26159.46663370 .00014473 00000-0 45270-3 0 9994 2 63210 97.4013 56.2109 0005346 109.3951 250.7869 15.33228548 68762 NUSHSAT 1 1 63211U 25052B 26159.45899227 .00018527 00000-0 53634-3 0 9993 2 63211 97.3987 56.7396 0005134 110.7208 249.4586 15.35627248 68809 TEVEL2-4 1 63213U 25052D 26158.66121393 .00020438 00000-0 61719-3 0 9996 2 63213 97.3922 55.0407 0004354 120.1889 239.9786 15.34277122 68658 TEVEL2-5 1 63214U 25052E 26159.46337036 .00016406 00000-0 49840-3 0 9990 2 63214 97.3910 55.7922 0004394 121.6229 238.5443 15.34134140 68773 TEVEL2-6 1 63215U 25052F 26159.21458765 .00015702 00000-0 47787-3 0 9993 2 63215 97.3912 55.5275 0004415 121.5489 238.6185 15.34088018 68738 TEVEL2-1 1 63217U 25052H 26159.24053252 .00015233 00000-0 47132-3 0 9993 2 63217 97.3889 55.1881 0004189 130.0273 230.1338 15.33568729 68723 TEVEL2-3 1 63218U 25052J 26159.23549191 .00015170 00000-0 46859-3 0 9990 2 63218 97.3889 55.2041 0004279 131.4338 228.7272 15.33621807 68727 TEVEL2-2 1 63219U 25052K 26159.69763688 .00018164 00000-0 56087-3 0 9990 2 63219 97.3887 55.6477 0004230 131.0442 229.1167 15.33595395 68799 TEVEL2-9 1 63237U 25052AD 26159.20683054 .00013734 00000-0 45172-3 0 9996 2 63237 97.3948 54.5513 0006909 156.1696 203.9867 15.31621079 68659 TEVEL2-7 1 63238U 25052AE 26159.24603484 .00013747 00000-0 45614-3 0 9995 2 63238 97.3948 54.5102 0007005 156.9865 203.1691 15.31335451 68651 TEVEL2-8 1 63239U 25052AF 26159.45022968 .00013909 00000-0 46163-3 0 9991 2 63239 97.3950 54.6910 0007062 156.6692 203.4871 15.31323830 68685 SPIRONE 1 66657U 25274H 26159.74636133 .00002860 00000-0 27655-3 0 9990 2 66657 97.7478 89.1581 0013311 48.1351 312.1002 14.93510898 28969 K-HERO 1 66660U 25274L 26159.75331997 .00002880 00000-0 27546-3 0 9996 2 66660 97.7486 89.3199 0015330 51.5776 308.6817 14.93931551 28979 SNUGLITE-III DURI 1 66661U 25274M 26159.74132470 .00002110 00000-0 20304-3 0 9992 2 66661 97.7486 89.3286 0015851 51.9361 308.3286 14.93972935 28977 SAKHACUBE-CHOLBON 1 67290U 25313AU 26159.16978697 .00008397 00000-0 34160-3 0 9998 2 67290 97.3924 234.3177 0009771 36.1127 324.0768 15.24728408 24604 RS95S (QMR-KWT-2) 1 67291U 25313AV 26159.16613882 .00011819 00000-0 46084-3 0 9992 2 67291 97.3927 234.4719 0009138 35.3898 324.7945 15.26059007 24613 Ten-Koh2 1 68261U 25241B 26159.75259884 .00006573 00000-0 28271-3 0 9992 2 68261 51.6681 359.7671 0006394 117.9263 242.2363 15.23804599 13621 JACK-002 1 68417U 26067B 26159.79724242 .00006773 00000-0 32412-3 0 9995 2 68417 97.4561 118.4924 0001212 22.2713 337.8574 15.19291839 10671 DISCO 2 1 68431U 26067R 26159.81658019 .00008769 00000-0 42272-3 0 9994 2 68431 97.4596 118.5003 0003585 58.0042 302.1540 15.18948382 10670 HADES-SA (SpinnyONE) 1 68446U 26067AG 26159.39410314 .00014065 00000-0 67850-3 0 9992 2 68446 97.4403 117.8238 0009841 104.1539 256.0789 15.18758632 10590 PARUS-6U1 1 68456U 26067AS 26159.81394133 .00005549 00000-0 28053-3 0 9999 2 68456 97.4545 118.3071 0007649 93.4236 266.7873 15.17429664 10666 SAL-E 1 68458U 26067AU 26159.81061220 .00007411 00000-0 37118-3 0 9991 2 68458 97.4469 118.2453 0008078 100.6124 259.6020 15.17640684 10662 FSI-SAT 2 1 68792U 26088A 26159.38712528 .00003505 00000-0 23912-3 0 9998 2 68792 97.5053 308.8690 0015612 134.2090 226.0423 15.06761099 6965 OrigamiSat 2 1 68795U 26088D 26159.40704978 .00003807 00000-0 24717-3 0 9993 2 68795 97.5070 308.9982 0016493 108.9395 251.3623 15.08528104 6970 ARICA 2 1 68796U 26088E 26159.40488692 .00004082 00000-0 26588-3 0 9990 2 68796 97.5058 308.9921 0017318 107.6086 252.7035 15.08357975 6978 WASEDA-SAT-ZERO-II 1 68797U 26088F 26159.40177110 .00005423 00000-0 35017-3 0 9998 2 68797 97.5053 308.9952 0017125 107.4963 252.8139 15.08543090 6977 MANGARO-II-Piscus 1 68798U 26088G 26159.65844117 .00003916 00000-0 25242-3 0 9998 2 68798 97.5060 309.2719 0020603 109.5339 250.8117 15.08722839 7016 IO-86 1 40931U 25360.30710720 .00000000 00000-0 12800-3 0 00 2 40931 6.0006 332.5373 0012733 338.8432 8.1437 14.79075515 01 LILIUM-4 1 71922C 26067AC 26089.50133053 -.00014632 00000 0 -74472-3 0 04 2 71922 97.4497 49.1617 0004341 5.9603 355.7042 15.16896692 16